Location: Christianberg
(48.9086°N, 14.0209°E)
Time: 22:48:29
(UTC+00:00)

SL-16 R/B - Pass Details

Date: 20 June 2021
Orbit: 985 x 1007 km, 99.5° (Epoch: 04 August)

Event Time Altitude Azimuth Distance (km) Brightness Sun altitude
Exits shadow 00:59:50 13° 177° (S) 2,540 4.2 -13.3°
Maximum altitude 01:05:24 64° 257° (WSW) 1,093 2.6 -12.9°
Drops below altitude 10° 01:11:33 10° 339° (NNW) 2,759 5.4 -12.4°
Sets 01:14:04 0° 343° (NNW) 3,710 6.2 -12.2°
